| time (UTC) | temp F | wind direction | speed MPH | gust MPH | rain 1hr in | rain 24hr in | rain mn in | humidity % | barometer mb |
| 20260507224531 | 74 | 360 | 1.0 | 3.0 | 0.00 | 0.00 | 0.00 | 36 | 1014.5 |
| 20260507223018 | 73 | 360 | 1.0 | 3.0 | 0.00 | 0.00 | 0.00 | 35 | 1014.5 |
| 20260507221516 | 73 | 360 | 1.0 | 3.0 | 0.00 | 0.00 | 0.00 | 38 | 1014.6 |
| 20260507220030 | 73 | 360 | 1.0 | 2.0 | 0.00 | 0.00 | 0.00 | 38 | 1014.7 |
| 20260507214515 | 73 | 360 | 1.0 | 3.0 | 0.00 | 0.00 | 0.00 | 38 | 1014.7 |
| 20260507213013 | 73 | 360 | 0.0 | 3.0 | 0.00 | 0.00 | 0.00 | 39 | 1014.7 |
| 20260507211509 | 72 | 360 | 1.0 | 5.0 | 0.00 | 0.00 | 0.00 | 37 | 1014.8 |
| 20260507210007 | 72 | 360 | 2.0 | 5.0 | 0.00 | 0.00 | 0.00 | 37 | 1015.3 |
| 20260507204505 | 72 | 360 | 1.0 | 3.0 | 0.00 | 0.00 | 0.00 | 42 | 1015.4 |
| 20260507203007 | 72 | 360 | 1.0 | 5.0 | 0.00 | 0.00 | 0.00 | 40 | 1015.8 |
| 20260507201601 | 72 | 360 | 1.0 | 6.0 | 0.00 | 0.00 | 0.00 | 42 | 1016.1 |
| 20260507200109 | 71 | 360 | 1.0 | 4.0 | 0.00 | 0.00 | 0.00 | 41 | 1016.4 |
| 20260507194556 | 70 | 360 | 1.0 | 4.0 | 0.00 | 0.00 | 0.00 | 42 | 1016.5 |
| 20260507193055 | 70 | 360 | 1.0 | 4.0 | 0.00 | 0.00 | 0.00 | 41 | 1016.8 |
| 20260507191557 | 70 | 360 | 2.0 | 4.0 | 0.00 | 0.00 | 0.00 | 42 | 1017.0 |
| 20260507190056 | 70 | 360 | 1.0 | 4.0 | 0.00 | 0.00 | 0.00 | 43 | 1017.1 |
| 20260507184552 | 69 | 360 | 1.0 | 8.0 | 0.00 | 0.00 | 0.00 | 43 | 1017.4 |
| 20260507183047 | 69 | 360 | 1.0 | 6.0 | 0.00 | 0.00 | 0.00 | 49 | 1017.6 |
| 20260507181547 | 69 | 204 | 2.0 | 7.0 | 0.00 | 0.00 | 0.00 | 48 | 1018.2 |
| 20260507180043 | 68 | 202 | 2.0 | 3.0 | 0.00 | 0.00 | 0.00 | 44 | 1018.4 |
| 20260507174547 | 70 | 360 | 1.0 | 5.0 | 0.00 | 0.00 | 0.00 | 48 | 1018.7 |
| 20260507173039 | 68 | 360 | 1.0 | 6.0 | 0.00 | 0.00 | 0.00 | 49 | 1018.9 |
| 20260507171538 | 67 | 213 | 0.0 | 3.0 | 0.00 | 0.00 | 0.00 | 52 | 1019.3 |
| 20260507170043 | 67 | 234 | 2.0 | 7.0 | 0.00 | 0.00 | 0.00 | 47 | 1019.6 |
| 20260507164534 | 67 | 159 | 1.0 | 6.0 | 0.00 | 0.00 | 0.00 | 55 | 1019.8 |
| 20260507163034 | 67 | 360 | 2.0 | 5.0 | 0.00 | 0.00 | 0.00 | 46 | 1019.8 |
| 20260507161530 | 67 | 360 | 1.0 | 4.0 | 0.00 | 0.00 | 0.00 | 56 | 1019.9 |
| 20260507160033 | 67 | 360 | 2.0 | 5.0 | 0.00 | 0.00 | 0.00 | 53 | 1020.1 |
| 20260507154525 | 65 | 360 | 0.0 | 3.0 | 0.00 | 0.00 | 0.00 | 48 | 1020.1 |
| 20260507153022 | 65 | 173 | 1.0 | 5.0 | 0.00 | 0.00 | 0.00 | 52 | 1020.2 |
| 20260507151516 | 65 | 164 | 2.0 | 4.0 | 0.00 | 0.00 | 0.00 | 51 | 1020.7 |
| 20260507150013 | 66 | 163 | 1.0 | 6.0 | 0.00 | 0.00 | 0.00 | 51 | 1020.9 |
| 20260507144511 | 64 | 360 | 1.0 | 4.0 | 0.00 | 0.00 | 0.00 | 51 | 1020.9 |
| 20260507143008 | 64 | 157 | 0.0 | 5.0 | 0.00 | 0.00 | 0.00 | 53 | 1021.1 |
| 20260507141504 | 63 | 156 | 0.0 | 2.0 | 0.00 | 0.00 | 0.00 | 53 | 1021.2 |
| 20260507140103 | 61 | 360 | 0.0 | 1.0 | 0.00 | 0.00 | 0.00 | 58 | 1021.3 |
| 20260507134557 | 59 | 142 | 0.0 | 1.0 | 0.00 | 0.00 | 0.00 | 62 | 1021.4 |
| 20260507133055 | 56 | 360 | 0.0 | 1.0 | 0.00 | 0.00 | 0.00 | 67 | 1021.4 |
| 20260507131558 | 53 | 143 | 0.0 | 0.0 | 0.00 | 0.00 | 0.00 | 74 | 1021.3 |
| 20260507130053 | 50 | 360 | 0.0 | 0.0 | 0.00 | 0.00 | 0.00 | 79 | 1021.3 |
| 20260507124538 | 48 | 142 | 0.0 | 0.0 | 0.00 | 0.00 | 0.00 | 82 | 1021.2 |
| 20260507123034 | 47 | 142 | 0.0 | 0.0 | 0.00 | 0.00 | 0.00 | 82 | 1021.0 |
| 20260507121531 | 46 | 142 | 0.0 | 0.0 | 0.00 | 0.00 | 0.00 | 82 | 1020.8 |
| 20260507120037 | 46 | 138 | 0.0 | 0.0 | 0.00 | 0.00 | 0.00 | 81 | 1020.7 |
| 20260507114525 | 47 | 136 | 0.0 | 0.0 | 0.00 | 0.00 | 0.00 | 81 | 1020.4 |
| 20260507113024 | 47 | 124 | 0.0 | 0.0 | 0.00 | 0.00 | 0.00 | 81 | 1020.4 |
| 20260507111524 | 48 | 124 | 0.0 | 0.0 | 0.00 | 0.00 | 0.00 | 80 | 1020.3 |
| 20260507110022 | 48 | 124 | 0.0 | 0.0 | 0.00 | 0.00 | 0.00 | 80 | 1020.2 |
| 20260507104521 | 48 | 124 | 0.0 | 0.0 | 0.00 | 0.00 | 0.00 | 80 | 1020.3 |
| 20260507103020 | 48 | 124 | 0.0 | 0.0 | 0.00 | 0.00 | 0.00 | 80 | 1020.3 |
| 20260507101519 | 48 | 124 | 0.0 | 0.0 | 0.00 | 0.00 | 0.00 | 80 | 1019.9 |
| 20260507100025 | 48 | 124 | 0.0 | 0.0 | 0.00 | 0.00 | 0.00 | 79 | 1019.8 |
| 20260507094517 | 49 | 124 | 0.0 | 0.0 | 0.00 | 0.00 | 0.00 | 80 | 1019.8 |
| 20260507093017 | 48 | 124 | 0.0 | 0.0 | 0.00 | 0.00 | 0.00 | 82 | 1019.8 |
| 20260507091517 | 48 | 124 | 0.0 | 0.0 | 0.00 | 0.00 | 0.00 | 82 | 1019.4 |
| 20260507090021 | 47 | 124 | 0.0 | 0.0 | 0.00 | 0.00 | 0.00 | 82 | 1019.4 |
| 20260507084515 | 47 | 124 | 0.0 | 0.0 | 0.00 | 0.00 | 0.00 | 82 | 1019.6 |
| 20260507083013 | 47 | 124 | 0.0 | 0.0 | 0.00 | 0.00 | 0.00 | 82 | 1019.7 |
| 20260507081522 | 47 | 124 | 0.0 | 0.0 | 0.00 | 0.00 | 0.00 | 80 | 1019.6 |
| 20260507080010 | 48 | 124 | 0.0 | 0.0 | 0.00 | 0.00 | 0.00 | 80 | 1019.5 |
| 20260507074519 | 48 | 124 | 0.0 | 0.0 | 0.00 | 0.00 | 0.00 | 79 | 1019.5 |
| 20260507073006 | 48 | 124 | 0.0 | 0.0 | 0.00 | 0.00 | 0.00 | 79 | 1019.7 |
| 20260507071507 | 48 | 124 | 0.0 | 0.0 | 0.00 | 0.00 | 0.00 | 79 | 1019.7 |
| 20260507070008 | 49 | 124 | 0.0 | 0.0 | 0.00 | 0.00 | 0.00 | 78 | 1019.7 |
| 20260507064502 | 49 | 124 | 0.0 | 0.0 | 0.00 | 0.00 | 0.00 | 77 | 1020.1 |
| 20260507063100 | 50 | 124 | 0.0 | 0.0 | 0.00 | 0.00 | 0.00 | 77 | 1020.3 |
| 20260507061606 | 50 | 124 | 0.0 | 0.0 | 0.00 | 0.00 | 0.00 | 76 | 1020.3 |
| 20260507060056 | 51 | 124 | 0.0 | 0.0 | 0.00 | 0.00 | 0.00 | 75 | 1020.1 |
| 20260507054637 | 51 | 124 | 0.0 | 1.0 | 0.00 | 0.00 | 0.00 | 75 | 1020.3 |
| 20260507053054 | 51 | 124 | 0.0 | 1.0 | 0.00 | 0.00 | 0.00 | 75 | 1020.4 |
| 20260507051551 | 51 | 124 | 0.0 | 1.0 | 0.00 | 0.00 | 0.00 | 76 | 1020.1 |
| 20260507050054 | 51 | 124 | 0.0 | 0.0 | 0.00 | 0.00 | 0.00 | 77 | 1019.7 |
| 20260507044553 | 52 | 124 | 0.0 | 0.0 | 0.00 | 0.00 | 0.00 | 77 | 1019.7 |
| 20260507043046 | 52 | 124 | 0.0 | 0.0 | 0.00 | 0.00 | 0.00 | 76 | 1019.6 |
| 20260507041549 | 53 | 125 | 0.0 | 1.0 | 0.00 | 0.00 | 0.00 | 75 | 1018.5 |
| 20260507040046 | 53 | 125 | 0.0 | 0.0 | 0.00 | 0.00 | 0.00 | 74 | 1018.8 |
| 20260507034554 | 54 | 125 | 0.0 | 0.0 | 0.00 | 0.00 | 0.00 | 73 | 1019.2 |
| 20260507033045 | 55 | 125 | 0.0 | 0.0 | 0.00 | 0.00 | 0.00 | 71 | 1019.1 |
| 20260507031600 | 55 | 125 | 0.0 | 0.0 | 0.00 | 0.00 | 0.00 | 70 | 1019.0 |
| 20260507030050 | 56 | 125 | 0.0 | 1.0 | 0.00 | 0.00 | 0.00 | 68 | 1018.6 |
| 20260507024543 | 57 | 125 | 0.0 | 1.0 | 0.00 | 0.00 | 0.00 | 68 | 1018.5 |
| 20260507023038 | 57 | 125 | 0.0 | 1.0 | 0.00 | 0.00 | 0.00 | 67 | 1018.5 |
| 20260507021539 | 58 | 125 | 0.0 | 2.0 | 0.00 | 0.00 | 0.00 | 66 | 1018.3 |
| 20260507020038 | 58 | 125 | 0.0 | 2.0 | 0.00 | 0.00 | 0.00 | 64 | 1018.0 |
| 20260507014547 | 59 | 126 | 0.0 | 3.0 | 0.00 | 0.00 | 0.00 | 63 | 1017.6 |
| 20260507013037 | 60 | 132 | 0.0 | 3.0 | 0.00 | 0.00 | 0.00 | 62 | 1017.4 |
| 20260507011538 | 60 | 128 | 1.0 | 4.0 | 0.00 | 0.00 | 0.00 | 61 | 1017.4 |
| 20260507010040 | 61 | 119 | 0.0 | 4.0 | 0.00 | 0.00 | 0.00 | 60 | 1017.4 |
| 20260507004534 | 61 | 123 | 1.0 | 3.0 | 0.00 | 0.00 | 0.00 | 59 | 1017.3 |
| 20260507003035 | 61 | 117 | 0.0 | 2.0 | 0.00 | 0.00 | 0.00 | 59 | 1017.2 |
| 20260507001532 | 61 | 360 | 0.0 | 3.0 | 0.00 | 0.00 | 0.00 | 58 | 1017.0 |
| 20260507000132 | 62 | 360 | 2.0 | 5.0 | 0.00 | 0.00 | 0.00 | 57 | 1017.0 |
| 20260506234531 | 62 | 129 | 1.0 | 4.0 | 0.00 | 0.00 | 0.00 | 57 | 1016.7 |
| 20260506233033 | 62 | 128 | 1.0 | 5.0 | 0.00 | 0.00 | 0.00 | 57 | 1016.7 |
| 20260506231529 | 63 | 107 | 1.0 | 6.0 | 0.00 | 0.00 | 0.00 | 56 | 1016.6 |
| 20260506230028 | 62 | 28 | 1.0 | 7.0 | 0.00 | 0.00 | 0.00 | 58 | 1016.5 |